User: anonymous   Login
Location: Unspecified
(0.0000°N, 0.0000°E)
Time: 00:49:06
(UTC+00:00)
Language:

STARLINK-31875 - Orbit

View from above orbital plane
View from above orbital plane
View from above satellite
View from above satellite

Ground track
Ground track

The orbit is defined by the following mean orbital elements,

1 59674U          26145.51345486 +.00000000 +00000-0 -73559-5 0 00003
2 59674  42.9976 324.3636 0001108 279.5759  80.4967 15.27570043    09
Epoch (UTC): 25 May 2026 12:19:22
Eccentricity: 0.0001108
inclination: 42.9976°
perigee height: 482 km
apogee height: 484 km
right ascension of ascending node: 324.3636°
argument of perigee: 279.5759°
revolutions per day: 15.27570043
mean anomaly at epoch: 80.4967°

The dashed part of the orbit path shows where the satellite is in the earth's shadow,  

DLR